Location: Newark
(49.8348°N, 24.0280°E)
Time: 20:50:48
(UTC+00:00)

S-56A Canister/Altair - Pass Details

Date: 31 January 2020
Orbit: 633 x 2499 km, 38.9° (Epoch: 22 February)

Event Time Altitude Azimuth Distance (km) Brightness Sun altitude
Rises 17:25:59 0° 238° (WSW) 4,780 12.6 -21.0°
Reaches altitude 10° 17:30:02 10° 230° (SW) 3,460 11.5 -21.6°
Maximum altitude 17:36:53 29° 174° (S) 1,815 9.3 -22.7°
Enters shadow 17:38:43 26° 146° (SE) 1,840 9.1 -23.0°
Drops below altitude 10° 17:41:54 10° 115° (ESE) 2,484 - -23.5°
Sets 17:44:19 0° 103° (ESE) 3,250 - -23.9°
